GFSMW_850_spd_198.txt.gz
Wind_Speed
23 22 20 29 30 30 31 29 27 25 26 25 22 19 17 17 16 12 13 13 11 14 14 9 6 11 9 6 6 5 8 9 12 12 12 3 1 8 12 6 9 6 3
27 26 24 24 30 30 32 32 30 26 26 26 22 21 19 20 15 17 12 16 14 14 16 17 9 6 7 7 6 9 6 9 6 8 11 11 3 3 7 4 8 4 9
31 30 28 27 31 34 33 36 33 31 28 24 21 22 19 18 18 18 18 16 16 20 17 16 14 7 12 9 6 5 5 3 6 7 6 5 4 3 5 6 8 6 7
26 33 29 27 26 35 27 29 30 32 32 29 24 23 24 23 21 18 21 20 17 19 21 19 15 16 7 8 7 6 10 6 2 8 2 5 3 4 3 10 3 4 11
24 34 30 27 26 26 30 31 32 31 30 28 28 27 25 18 18 18 17 19 21 17 21 19 18 16 19 14 5 9 7 8 6 3 6 6 8 6 8 7 3 7 6
24 35 31 28 27 26 27 28 31 31 28 29 30 28 24 23 21 19 22 22 20 19 18 22 21 19 15 17 11 6 12 13 9 5 3 2 11 8 12 12 11 10 8
23 32 33 32 28 28 27 28 31 31 30 33 29 30 26 25 22 22 21 20 24 20 21 19 24 23 20 16 16 8 13 11 6 7 9 8 8 5 8 8 11 15 12
23 27 32 32 30 30 29 29 30 33 31 32 29 27 30 26 25 26 26 22 19 22 24 20 20 22 21 17 17 13 12 10 9 8 9 11 7 6 7 7 10 15 15
22 26 29 30 33 31 31 31 31 30 28 30 29 28 25 27 22 19 20 22 22 19 19 18 23 22 24 18 18 17 14 12 12 11 12 9 10 9 7 8 11 8 16
23 26 27 28 32 31 32 31 31 31 25 27 29 29 26 25 24 23 23 20 20 19 24 22 21 19 25 24 19 19 15 14 15 12 12 15 11 9 12 12 9 12 9
23 25 27 28 30 29 31 32 32 29 28 26 28 25 24 24 23 27 23 21 24 19 19 21 21 20 23 24 22 21 18 14 19 19 18 18 16 14 13 11 10 9 13
26 26 28 29 30 31 31 33 33 32 32 28 30 28 27 24 23 24 26 23 22 27 22 23 25 23 21 21 21 23 23 17 20 15 13 16 14 14 12 11 11 13 12
26 27 29 30 30 31 31 30 33 33 32 28 29 31 29 28 27 25 26 27 19 28 29 24 25 24 24 26 26 23 20 20 22 19 18 14 13 15 17 15 15 17 19
10 23 27 30 32 30 32 30 31 31 30 29 32 32 32 30 28 29 23 26 22 19 27 30 28 27 25 25 24 23 20 20 21 21 18 18 16 16 18 17 17 17 17
7 6 4 13 29 25 25 29 23 28 30 29 32 32 31 30 28 26 26 22 27 23 19 21 28 27 27 27 26 26 25 23 22 21 21 19 15 18 20 20 21 22 23
10 10 7 7 11 12 13 19 28 18 25 29 31 31 32 32 31 29 28 28 25 25 23 24 24 26 29 27 25 25 22 24 22 22 21 19 22 19 20 20 20 21 22
11 14 10 10 7 7 11 16 16 26 21 23 28 30 30 31 33 30 31 30 28 25 23 21 20 22 24 25 23 24 26 25 21 22 24 21 15 18 16 18 24 26 24
22 20 17 15 10 4 9 11 14 19 17 26 22 25 26 29 28 32 32 31 30 26 25 23 22 21 21 22 23 27 28 29 30 27 22 21 24 27 28 29 30 28 22
32 20 16 17 18 10 9 6 8 11 14 17 19 23 24 26 26 29 30 30 28 26 23 23 22 22 20 20 21 22 29 31 33 33 33 34 34 33 30 28 28 27 29
27 24 20 14 16 17 10 5 5 5 9 12 15 18 19 21 22 24 27 27 26 23 22 21 21 20 19 18 18 20 23 29 31 29 30 29 28 30 29 27 29 30 22
10 21 18 17 13 10 8 9 7 1 4 9 10 12 14 17 19 21 24 26 25 23 22 20 16 18 18 17 18 20 23 28 28 28 28 29 27 29 29 26 22 22 24
14 9 15 15 10 8 5 5 2 3 3 3 3 8 12 15 16 21 23 22 21 21 22 17 13 17 26 22 18 18 20 25 30 31 25 28 32 31 31 24 21 22 22
12 9 8 10 5 3 5 1 6 9 5 4 7 6 4 6 9 11 15 13 13 17 20 21 24 19 38 31 19 25 25 25 29 33 32 32 32 30 27 23 22 22 19
17 15 12 14 17 9 7 9 7 9 7 8 7 7 9 8 15 15 17 22 17 19 24 23 20 22 30 33 32 40 38 38 29 32 36 37 27 25 27 25 22 18 15
22 21 19 17 15 12 14 19 14 12 13 12 9 8 11 9 6 10 12 16 16 14 18 18 18 16 16 19 20 30 36 33 38 31 27 25 29 27 25 21 17 12 12
27 27 26 24 20 19 18 17 19 20 16 15 15 13 12 17 9 9 9 11 9 9 13 18 21 23 18 18 3 16 14 23 31 32 33 27 19 15 12 13 15 17 17

GFSMW_850_spd_201.txt.gz
Wind_Speed
33 35 33 31 31 34 31 29 29 28 25 22 21 20 20 16 15 14 18 14 11 7 16 8 5 6 3 3 4 7 8 5 11 6 8 7 13 9 9 11 7 6 7
36 33 34 38 37 35 32 31 31 32 29 26 23 19 20 18 17 15 14 13 12 10 15 12 8 8 2 0 3 7 4 3 7 10 8 5 8 5 3 9 11 3 5
42 38 38 41 40 37 34 34 34 33 30 27 23 21 20 21 20 19 18 16 16 12 13 15 12 6 2 5 2 2 3 4 6 10 4 4 5 6 5 1 3 4 2
42 40 39 39 41 39 36 33 37 37 33 29 26 24 24 26 25 24 20 21 18 15 16 20 16 13 7 8 5 4 5 4 4 2 3 2 3 4 4 7 1 4 9
46 45 40 41 41 37 35 30 37 37 34 32 30 27 24 26 24 22 21 23 21 19 15 23 21 16 16 8 9 8 6 7 3 2 5 3 9 6 7 11 10 9 9
47 45 40 42 34 36 34 33 34 37 35 33 30 29 29 26 24 24 22 22 21 21 19 13 19 21 17 13 13 14 12 12 8 7 6 3 6 8 12 11 9 15 13
46 44 42 40 34 32 30 33 32 36 36 34 32 31 32 28 26 25 25 24 23 25 22 16 14 19 19 16 14 17 11 11 7 10 10 9 6 1 5 7 10 13 11
49 49 44 38 41 35 32 32 31 32 32 32 29 30 28 29 28 28 27 26 24 25 21 18 16 15 18 19 17 15 14 9 10 9 7 8 10 6 3 6 14 12 8
49 50 44 41 42 41 37 36 33 31 29 31 29 29 29 29 29 31 28 25 24 19 22 23 20 17 19 18 18 20 15 10 10 10 8 11 7 12 10 6 10 4 8
47 46 46 44 42 40 38 38 33 29 26 27 28 29 28 27 29 29 27 25 24 22 23 20 21 16 21 21 21 20 18 14 13 13 11 12 13 9 10 6 4 5 5
42 46 44 42 41 39 39 38 36 32 30 26 26 28 27 25 24 27 25 22 19 20 24 24 23 22 20 18 23 22 17 17 16 17 17 16 16 13 13 12 11 9 8
40 44 43 41 43 40 39 39 38 35 32 29 27 27 25 24 25 25 29 25 21 20 25 22 19 19 18 20 23 22 19 21 21 17 16 17 14 15 13 13 12 14 14
27 42 44 43 43 42 40 38 39 37 33 29 28 28 26 24 23 23 23 27 21 19 24 25 24 21 20 21 19 20 18 17 21 21 19 18 15 14 13 12 13 14 14
34 24 10 40 43 45 41 38 39 38 35 32 28 28 30 28 25 21 20 21 20 20 20 28 25 23 22 21 20 21 21 20 19 20 20 20 17 16 14 17 15 17 16
35 29 30 36 35 46 44 39 39 40 37 35 32 28 27 28 28 26 24 22 22 21 20 22 27 26 25 25 23 24 25 22 20 20 18 20 21 17 18 18 19 19 21
26 14 11 62 37 42 45 43 38 39 38 37 34 30 29 27 26 26 26 25 23 23 22 21 22 24 25 26 25 25 25 24 23 25 23 19 19 19 20 20 19 21 23
17 12 18 57 22 14 17 27 21 33 35 35 34 33 30 30 27 25 24 25 25 25 24 23 22 22 22 22 23 22 23 23 21 20 20 18 19 19 17 19 22 23 23
24 11 12 41 50 23 14 9 13 14 17 25 29 28 29 28 28 26 27 27 27 27 27 26 24 23 21 21 23 22 23 25 24 24 23 21 21 20 21 23 27 29 31
12 12 4 23 31 39 18 10 3 9 10 11 14 19 24 24 25 25 23 26 29 28 27 25 23 21 19 18 18 19 21 28 30 28 29 29 30 29 28 30 33 33 32
8 10 15 12 27 27 23 25 6 4 5 6 9 13 17 17 20 22 22 23 27 29 28 27 24 20 17 14 14 16 19 23 27 30 30 29 30 30 29 30 29 28 26
13 16 14 14 15 19 13 9 9 7 2 3 6 9 14 17 17 19 21 22 24 26 28 27 24 21 19 17 14 9 13 22 27 27 25 22 20 19 21 24 25 27 27
13 10 12 13 13 15 14 10 11 13 8 2 3 7 9 13 17 17 18 19 20 21 22 23 22 15 11 15 16 18 21 25 33 32 26 23 22 18 20 22 25 26 27
19 14 16 18 17 13 11 9 10 12 15 9 4 3 5 8 11 12 20 22 20 18 12 8 18 21 27 28 23 25 24 25 32 35 31 27 23 21 18 23 26 24 26
21 21 19 19 18 18 17 17 12 10 15 14 11 8 9 9 12 14 14 13 15 15 21 23 25 28 32 24 24 25 24 25 32 34 34 30 25 20 20 23 25 27 25
27 28 24 22 24 19 16 15 18 22 17 16 15 13 11 10 9 10 13 15 15 18 19 20 20 20 19 12 14 15 22 31 31 27 17 23 23 19 13 17 20 22 22
28 31 33 30 24 26 25 20 17 17 18 22 17 17 14 14 20 18 12 10 8 12 14 14 15 16 17 20 20 18 18 14 16 24 31 33 28 20 18 18 19 17 16

GFSMW_850_spd_207.txt.gz
Wind_Speed
41 40 41 41 37 38 37 33 33 29 30 27 26 25 23 20 21 20 18 17 12 12 17 15 14 10 8 5 4 2 5 5 6 5 3 4 3 5 3 3 6 7 7
35 38 40 41 40 39 38 35 35 33 32 29 28 26 23 23 20 19 20 15 14 10 15 16 15 11 11 9 6 2 5 6 5 2 4 4 2 5 5 5 5 8 8
40 40 43 43 40 40 39 37 36 34 35 32 28 27 24 25 23 23 22 19 17 15 15 18 18 14 10 11 9 6 5 4 4 6 3 2 3 4 4 5 6 5 2
39 41 43 43 44 40 39 36 37 36 35 34 32 30 28 27 28 24 22 19 19 18 17 15 18 17 13 14 11 8 8 9 5 4 3 4 3 2 3 7 1 6 10
46 44 45 42 43 41 40 38 39 38 36 36 34 33 31 27 25 25 22 23 22 20 20 18 16 18 18 15 15 13 10 8 9 7 4 7 7 4 3 4 6 5 5
47 43 41 41 41 40 39 37 40 42 37 36 37 35 34 30 27 27 26 25 26 24 23 21 19 19 20 20 16 13 14 11 9 7 7 6 4 4 1 1 0 3 5
33 40 42 43 43 41 40 41 40 44 41 39 38 37 36 32 29 27 25 27 29 28 26 25 23 20 22 22 21 20 17 15 12 11 11 9 7 5 6 4 2 3 2
34 41 44 44 44 41 40 41 41 41 42 40 39 36 35 35 31 28 26 27 29 30 25 26 24 22 20 24 25 21 18 15 14 14 12 10 9 9 9 7 5 6 6
26 43 45 46 45 41 39 39 40 39 39 39 38 37 36 37 33 30 27 26 27 28 27 26 25 24 23 21 24 24 22 17 17 14 16 12 12 10 11 11 9 7 3
8 23 28 34 42 40 36 36 36 35 32 34 34 35 33 34 33 29 28 28 26 26 28 25 24 26 26 24 23 25 24 23 20 18 18 15 13 11 11 12 10 11 8
25 4 15 17 30 32 33 35 36 33 33 33 31 31 31 31 32 32 29 27 29 28 28 25 25 24 28 27 27 25 24 26 22 21 19 18 16 13 12 11 14 14 13
28 17 4 11 13 20 24 26 27 29 29 31 33 29 27 27 29 29 29 29 29 30 29 29 28 28 26 24 25 25 26 26 25 23 22 20 18 17 16 16 15 15 15
30 19 15 7 5 7 5 10 15 17 17 17 24 32 36 25 24 28 29 29 29 30 31 28 27 27 27 27 24 24 25 27 27 24 24 21 18 17 15 14 15 15 16
27 27 23 11 2 8 13 15 3 10 9 9 8 15 22 31 36 26 25 29 29 28 29 28 27 25 24 23 22 22 25 27 26 26 25 26 23 20 18 18 16 14 16
27 27 26 22 18 13 14 33 33 15 17 12 17 24 26 27 29 38 31 25 29 28 27 29 26 25 25 25 23 23 24 23 25 26 24 24 23 22 21 20 17 17 18
22 16 23 26 18 20 8 27 37 35 30 25 27 45 47 37 34 34 38 31 28 27 26 28 28 26 23 24 25 23 23 23 23 23 23 22 22 22 21 21 20 20 19
25 21 17 24 23 17 11 9 20 25 40 34 41 62 54 49 36 38 34 41 33 29 28 25 26 25 23 19 21 22 23 24 24 23 24 24 24 24 24 23 21 21 21
27 26 28 26 22 16 15 12 17 17 21 32 49 55 53 47 47 39 38 41 34 36 32 29 25 25 22 17 16 17 21 24 25 26 26 26 26 24 22 21 24 25 24
25 27 25 26 23 24 22 23 23 20 25 32 37 33 40 39 42 44 41 44 34 34 31 28 27 26 21 18 17 17 18 22 25 26 26 26 27 26 24 23 23 23 24
24 22 23 24 19 18 20 24 24 21 24 27 27 30 23 23 30 32 46 47 37 35 27 24 24 25 24 24 24 21 19 21 23 25 27 27 28 27 26 25 28 29 28
31 28 26 27 24 19 20 21 21 22 24 24 28 22 35 20 19 28 51 45 41 36 35 32 29 25 27 27 22 16 11 18 23 22 24 24 24 24 26 28 31 32 30
31 29 28 27 25 20 18 18 17 18 21 21 22 19 26 9 27 44 16 19 42 36 33 28 26 27 28 28 23 19 24 18 25 24 24 21 21 21 23 26 29 30 28
32 28 26 23 24 24 21 20 17 16 17 17 16 13 8 15 28 22 17 38 18 22 32 26 24 25 21 16 18 16 20 23 30 25 24 24 24 26 26 27 27 28 26
30 30 29 26 23 26 26 24 19 16 13 15 19 16 11 7 5 8 9 9 6 10 7 10 10 16 19 23 16 19 24 25 32 27 23 28 30 28 28 28 27 29 28
29 30 33 33 30 29 29 24 24 19 19 18 16 17 16 13 11 10 11 11 10 5 3 1 3 9 15 17 19 14 14 20 20 27 32 26 23 24 22 22 24 28 29
28 29 28 28 29 30 32 27 22 20 19 18 18 15 15 14 14 13 10 9 8 7 6 7 8 10 14 13 16 18 19 19 20 23 21 19 19 20 19 18 14 14 18

GFSMW_850_spd_210.txt.gz
Wind_Speed
34 34 38 37 38 37 36 31 31 29 28 28 26 24 22 19 19 17 16 18 17 15 14 15 12 11 9 6 4 3 2 3 3 5 3 3 3 4 5 9 7 6 6
31 32 34 37 38 38 38 36 33 31 31 30 26 25 22 19 17 18 17 18 17 16 14 16 13 13 11 10 8 6 5 3 3 3 2 2 2 3 5 6 7 6 7
39 33 33 36 37 38 39 40 36 33 33 29 28 27 24 22 22 23 20 21 18 17 12 15 15 15 12 12 11 9 7 6 2 0 1 2 2 2 3 5 4 5 4
39 32 35 35 37 36 36 37 37 35 34 31 32 31 27 25 24 23 20 20 19 19 16 16 16 18 16 12 11 10 8 8 6 2 1 2 2 1 2 4 3 5 9
39 45 38 34 34 34 33 33 34 36 36 35 33 32 30 26 21 21 23 20 20 19 18 17 16 17 18 15 14 13 9 9 9 7 5 3 3 3 4 4 5 2 3
25 30 33 31 34 33 33 32 32 34 34 36 36 35 33 30 26 24 25 24 20 21 21 20 19 17 16 18 16 14 14 13 10 9 8 8 6 4 3 3 1 0 2
9 21 28 32 34 35 33 32 32 33 33 36 36 35 35 32 30 26 24 24 23 22 23 23 21 20 18 19 19 19 17 15 14 14 14 12 11 9 7 5 4 4 5
29 14 24 27 29 32 32 32 31 32 31 34 36 35 35 35 32 29 29 24 24 23 24 25 24 23 22 20 21 23 22 21 20 18 16 14 12 12 10 8 7 7 9
35 20 7 18 23 29 31 31 30 30 30 30 34 36 36 36 34 32 29 24 25 23 23 25 26 25 25 24 22 23 25 24 20 17 15 17 13 13 12 12 10 10 8
33 23 10 6 15 23 26 26 27 28 30 31 32 35 35 34 34 34 30 29 26 24 24 25 27 27 27 25 25 25 24 25 23 20 19 17 16 13 13 13 13 11 10
33 26 15 5 5 14 17 20 22 24 26 28 30 33 36 35 35 36 34 32 28 26 26 25 25 28 27 27 28 28 26 26 25 24 22 21 19 17 15 15 14 14 16
32 27 22 13 4 6 9 11 7 12 17 20 21 24 27 31 31 32 33 35 34 30 28 28 27 27 26 25 24 28 30 27 25 25 23 22 19 19 18 17 16 17 17
33 32 24 17 14 9 9 10 10 12 2 9 13 19 23 25 25 25 27 29 32 33 31 30 32 28 28 28 27 25 23 24 25 26 25 23 22 19 19 20 20 17 17
30 30 32 25 14 1 5 1 11 24 24 14 12 11 11 15 17 20 23 25 26 29 31 31 32 31 27 24 25 25 25 25 27 26 26 25 24 23 20 20 19 17 18
27 26 26 27 28 26 14 17 16 18 32 37 37 28 25 30 28 27 24 22 25 22 26 31 31 30 27 24 23 23 22 22 22 25 26 27 26 23 24 22 22 20 18
23 25 23 24 25 24 20 16 7 10 18 28 37 39 37 38 42 28 24 25 25 29 25 27 31 30 29 25 22 24 24 22 23 24 23 25 25 23 22 22 22 20 20
23 23 23 22 20 17 18 17 17 16 15 15 18 34 37 39 40 28 31 30 28 28 31 27 29 32 31 26 23 24 28 26 25 24 23 23 24 23 23 22 21 22 22
27 27 24 22 21 17 16 16 16 16 20 20 20 23 25 31 31 34 36 34 36 36 36 30 30 31 29 27 24 22 25 28 26 26 25 25 24 24 24 24 24 25 26
31 31 29 27 23 21 21 18 18 19 18 19 22 25 28 28 31 32 38 37 33 37 41 33 32 35 31 29 26 26 26 28 29 28 28 27 27 26 25 26 27 26 25
30 32 32 28 26 23 21 23 20 18 18 20 23 24 24 27 25 26 26 26 29 34 38 37 30 37 37 34 30 31 29 28 28 27 27 26 26 25 25 26 27 28 29
32 30 29 29 27 24 23 23 21 18 16 18 19 20 22 23 27 22 18 20 20 19 27 32 30 37 40 38 34 34 30 28 26 23 22 23 24 24 23 23 27 30 28
32 31 29 28 27 23 22 23 24 21 20 17 14 17 21 17 23 21 24 21 21 26 11 7 28 43 41 38 36 32 25 20 24 28 23 20 19 18 18 20 21 23 26
29 29 28 29 29 26 26 26 24 24 22 20 16 14 18 19 15 12 19 18 12 14 23 18 15 37 46 41 36 33 33 30 25 23 22 18 17 18 18 18 22 24 26
29 30 30 32 35 29 26 27 26 23 22 21 18 13 14 16 16 13 16 18 12 7 10 12 28 46 49 34 28 33 40 31 29 29 22 22 19 18 20 25 25 25 26
27 27 29 33 34 31 28 24 24 23 20 19 18 14 12 11 14 14 14 16 16 15 11 4 7 16 19 13 17 23 20 21 30 29 30 26 26 24 25 24 24 23 22
25 25 26 28 30 32 28 22 18 18 16 15 17 12 12 11 12 10 9 10 9 5 3 0 2 7 15 19 23 25 21 19 17 21 18 19 20 17 17 16 14 15 15

GFSMW_850_spd_216.txt.gz
Wind_Speed
14 18 19 20 19 19 19 20 21 21 21 22 16 14 12 11 12 12 12 13 13 12 13 9 8 8 6 7 4 4 5 3 6 4 1 2 5 7 7 8 8 8 7
16 17 20 22 22 22 22 23 24 22 23 19 20 16 14 12 12 12 13 14 13 14 13 11 10 10 9 9 7 5 3 4 4 3 3 4 3 7 8 9 9 8 7
15 19 20 22 23 24 24 25 26 25 23 23 17 19 17 15 16 15 13 14 15 14 16 16 13 11 11 9 9 7 6 3 4 3 2 3 2 3 4 7 8 8 7
7 17 19 21 21 22 23 24 26 28 26 25 20 20 18 15 13 13 13 13 16 17 16 16 16 13 11 13 10 8 7 6 4 5 3 3 4 5 4 5 6 7 7
6 8 18 19 20 20 21 21 23 27 29 28 27 24 21 20 16 15 15 18 16 19 18 17 17 16 14 14 14 11 10 8 7 6 5 5 3 4 5 3 7 6 5
17 2 9 14 16 18 19 20 22 24 27 30 29 29 21 21 18 19 18 16 16 17 19 19 19 20 17 15 14 14 14 12 10 9 8 8 6 6 6 7 5 6 4
23 15 5 4 9 13 15 16 18 20 23 27 29 30 28 25 23 24 20 18 16 17 17 18 20 18 20 20 19 17 16 16 11 11 11 11 10 10 9 9 10 9 8
24 21 14 6 1 6 12 15 16 19 20 23 26 27 28 25 23 22 20 19 18 20 17 17 21 19 21 21 21 20 19 16 17 16 13 12 12 12 12 12 11 9 11
23 22 19 14 8 2 5 9 12 14 17 19 21 23 25 27 23 24 21 21 23 22 19 22 23 24 22 22 24 24 20 20 21 18 17 17 14 14 14 14 13 12 14
23 22 20 18 14 8 2 5 8 11 12 16 18 19 20 23 23 23 23 23 21 22 25 26 25 23 23 24 25 25 23 25 21 19 20 20 17 16 15 15 15 16 16
20 20 20 18 16 12 7 2 4 6 10 13 15 18 19 21 22 22 23 24 23 24 25 26 26 27 27 27 26 26 26 27 26 25 23 21 21 18 17 16 16 17 17
15 16 17 18 17 14 7 5 3 0 2 8 12 16 19 21 21 23 24 25 24 24 24 25 26 28 30 29 28 27 27 30 30 30 29 28 24 25 23 18 19 18 17
11 12 13 14 15 15 9 1 3 7 7 10 10 12 14 15 15 17 17 19 21 23 23 24 25 27 29 30 30 29 29 31 31 32 33 33 31 28 26 23 21 19 18
10 11 12 13 13 13 12 13 12 13 12 16 15 15 12 11 7 11 14 13 16 20 22 23 25 25 26 27 28 28 31 33 34 34 31 32 33 38 31 23 24 24 22
11 13 14 14 14 13 13 13 13 12 11 10 9 12 15 24 28 26 24 26 26 23 22 22 24 26 27 27 29 29 28 29 29 29 30 32 27 25 29 24 24 24 21
14 16 17 18 17 16 16 16 15 14 13 12 11 10 10 11 13 15 17 22 25 28 27 29 27 27 29 28 32 33 28 29 30 29 28 26 25 25 29 30 29 25 26
17 19 19 18 19 20 19 19 18 17 15 13 12 11 11 12 12 13 11 13 16 19 23 25 30 28 27 29 33 35 34 28 29 29 28 26 24 26 26 30 31 31 30
20 21 21 22 21 22 21 20 19 19 17 15 13 12 12 13 13 13 15 13 13 18 22 25 28 32 33 32 31 34 35 35 31 31 28 28 25 24 24 25 25 30 32
21 21 21 23 23 23 21 21 21 19 18 17 16 15 14 13 14 14 14 15 17 17 18 21 23 28 34 32 32 31 34 35 36 31 30 30 28 26 28 25 24 24 25
19 20 21 21 19 20 20 20 19 21 20 19 19 19 18 16 15 15 15 16 18 18 17 18 19 23 28 31 33 35 34 32 33 34 30 31 30 27 30 28 25 25 24
19 20 19 19 18 18 20 21 19 21 23 22 22 22 22 20 18 16 16 17 17 16 16 19 21 22 23 28 33 36 34 34 33 33 28 25 28 32 33 30 28 27 22
18 18 19 19 19 19 21 22 23 22 23 24 25 25 24 23 20 19 17 17 19 17 17 18 19 19 25 24 29 33 36 36 35 33 30 25 25 26 30 33 31 31 28
18 17 17 20 19 20 19 22 24 24 24 25 26 25 24 24 22 19 17 17 16 17 16 15 16 16 18 22 25 31 30 35 43 40 33 31 28 22 20 24 26 27 29
17 17 18 19 22 19 22 20 22 21 21 23 23 22 23 23 21 19 18 18 16 15 17 15 16 12 14 16 22 24 28 31 38 44 43 36 28 25 20 26 22 25 24
16 17 19 21 21 20 19 18 17 17 17 20 20 18 19 20 21 21 19 19 17 15 19 18 15 15 17 16 17 24 26 23 24 39 43 37 25 17 19 17 19 20 22
17 19 21 21 20 21 19 20 19 18 17 17 15 15 17 16 18 17 19 19 18 19 19 21 17 15 20 18 21 16 18 23 29 24 28 28 21 15 16 19 20 20 25

GFSMW_850_spd_222.txt.gz
Wind_Speed
19 21 17 15 16 19 18 21 20 17 23 22 15 11 10 9 10 9 8 10 8 9 9 10 8 8 3 7 14 11 9 4 6 6 2 8 15 12 10 7 11 11 9
29 29 26 22 20 21 19 21 24 22 22 19 17 14 11 12 13 14 13 16 12 12 14 12 10 5 9 6 12 13 7 8 10 1 6 2 7 13 9 12 10 11 5
31 32 29 23 19 22 21 19 24 23 21 18 17 16 16 12 16 17 18 17 14 12 13 13 12 13 12 12 9 16 8 5 8 7 6 1 2 5 9 14 11 9 9
5 19 25 24 22 20 20 19 18 23 24 19 18 17 23 21 17 14 13 15 14 11 11 15 15 13 12 12 11 10 12 10 8 7 8 9 5 4 5 19 12 12 13
6 6 19 26 26 21 19 19 20 20 19 20 25 20 20 20 19 18 17 15 18 15 16 17 18 18 14 13 13 16 15 13 9 8 5 10 8 9 10 8 8 9 16
7 2 11 21 16 19 17 18 20 20 20 21 20 26 21 20 17 17 19 14 18 18 16 17 18 20 18 17 17 14 18 21 16 12 11 8 8 10 9 8 11 6 7
19 16 11 11 11 9 16 15 18 18 18 18 23 22 25 25 22 21 18 22 17 22 18 21 21 20 20 19 18 19 19 17 19 17 18 15 11 12 13 9 9 1 2
19 15 15 14 8 5 3 9 10 13 13 15 19 21 25 24 29 24 20 21 24 18 20 18 23 21 20 21 18 21 21 22 22 21 19 19 19 14 9 10 13 14 11
17 17 14 14 14 15 6 2 5 8 11 13 19 19 21 25 25 24 21 22 21 22 22 25 25 22 22 22 20 20 21 23 23 23 24 23 23 19 12 12 13 13 10
16 15 15 15 13 11 12 5 2 3 9 13 13 16 21 23 24 24 26 25 21 22 22 23 25 27 24 25 22 23 24 25 25 25 25 25 24 20 15 16 19 14 13
13 13 13 14 14 12 11 10 9 9 10 12 16 16 14 13 19 21 21 22 24 26 23 23 25 27 26 27 27 28 25 24 25 26 26 26 22 23 23 16 22 23 15
10 10 10 11 12 12 12 13 14 12 13 13 15 17 19 20 19 14 17 25 24 24 26 27 26 28 29 30 30 31 30 29 29 28 26 28 28 26 26 25 22 22 22
7 8 10 10 11 12 13 12 12 13 16 16 12 12 16 17 20 21 19 19 20 22 22 23 26 28 27 27 27 27 29 31 31 30 28 29 28 28 28 30 31 30 28
4 5 7 10 11 13 14 16 15 15 13 16 15 18 15 13 18 18 21 18 20 18 19 18 23 25 26 26 27 27 28 28 29 29 29 31 31 28 29 30 31 31 33
8 10 10 11 13 14 16 16 18 18 16 17 16 16 17 17 16 16 17 19 20 22 24 23 21 20 23 26 25 23 27 31 29 30 29 29 31 29 29 30 32 30 32
9 10 12 14 15 16 18 18 19 16 18 22 19 17 17 19 21 18 15 14 15 17 18 19 24 24 27 28 23 24 26 28 27 32 30 30 29 30 28 28 31 29 29
9 12 14 14 14 16 18 20 23 26 23 20 19 19 19 20 20 20 18 17 16 16 17 19 20 22 24 26 26 27 30 28 31 32 33 30 29 29 26 27 31 29 30
10 12 12 13 15 16 18 17 20 22 22 20 20 19 22 22 21 18 18 18 17 18 20 18 16 17 21 24 25 24 24 32 34 34 32 35 32 30 29 28 27 28 28
9 11 12 13 16 17 18 19 21 23 20 21 21 24 22 24 22 20 19 18 18 18 19 20 20 21 24 23 25 24 25 29 32 34 31 32 35 36 30 31 31 29 29
9 11 13 13 15 17 18 18 21 22 23 22 24 27 28 28 29 28 25 24 22 20 19 19 20 22 24 24 20 17 23 28 27 30 32 35 35 35 36 33 31 34 34
10 12 13 13 14 17 19 20 21 22 24 25 25 26 26 26 27 31 31 29 26 22 21 22 23 22 19 20 21 18 20 20 24 32 30 32 32 31 34 37 37 36 32
10 12 13 14 15 16 17 17 19 21 24 24 24 24 22 24 24 23 22 26 26 24 23 22 23 19 16 15 17 15 16 22 26 26 32 34 28 28 33 32 40 37 32
10 11 13 15 15 16 17 19 21 21 24 26 28 27 24 23 23 21 19 22 22 24 22 21 25 26 19 19 18 16 15 20 26 24 24 32 35 38 32 38 37 34 35
9 11 12 13 15 18 20 20 19 22 23 25 26 26 23 22 18 19 18 19 21 20 20 24 21 22 16 15 15 21 23 25 25 29 25 23 33 36 39 43 38 45 39
10 11 13 15 17 19 18 18 19 21 23 25 26 25 23 20 19 22 21 19 20 21 24 26 20 18 22 25 25 25 28 27 24 27 22 24 25 24 32 39 42 42 44
9 11 13 17 17 20 21 18 18 20 22 24 24 24 23 20 19 22 23 18 15 19 25 30 26 24 25 24 25 23 23 24 22 26 19 21 22 20 25 29 37 43 46